Regional Weather Roundup
Issued by NWS

Home | Current Version | Previous Version | Graphics & Text | Print | Product List | Glossary On
Versions: 1 2 3 4 5 6 7 8 9 10 11 12 13 14 15 16 17 18 19 20 21 22 23 24 25 26 27 28 29 30 31 32 33 34 35 36 37 38 39 40 41 42 43 44 45 46 47 48 49 50
000
ASUS43 KLMK 062102
RWRKY
KENTUCKY REGIONAL WEATHER ROUNDUP
NATIONAL WEATHER SERVICE LOUISVILLE KY
400 PM EST FRI MAR 06 2015

NOTE "FAIR" INDICATES FEW OR NO CLOUDS BELOW 12,000 FEET
WITH NO SIGNIFICANT WEATHER AND/OR OBSTRUCTIONS TO VISIBILITY.

KYZ001>023-026-027-061>063-070>075-062200-
WESTERN AND SOUTH CENTRAL KENTUCKY

CITY           SKY/WX    TMP DP  RH WIND       PRES   REMARKS
PADUCAH        SUNNY     29  10  45 SW10      30.48F WCI  20
HENDERSON      SUNNY     30   7  37 S10       30.46F WCI  21
OWENSBORO      SUNNY     28  13  53 S12       30.47F WCI  18
HOPKINSVILLE   SUNNY     29  13  52 E5        30.47F WCI  24
BOWLING GREEN  SUNNY     28   9  44 SW7       30.49F WCI  21
GLASGOW        NOT AVBL
$$

KYZ024-025-028>034-038-045-046-053-062200-
NORTH CENTRAL KENTUCKY

CITY           SKY/WX    TMP DP  RH WIND       PRES   REMARKS
LOUISVILLE/SDF MOSUNNY   31  12  45 SW9       30.45F WCI  23
LOUISVILLE/LOU SUNNY     30  12  47 S8        30.45F WCI  22
FORT KNOX      SUNNY     28  13  52 S9        30.43F WCI  19
$$

KYZ035>037-039>044-047>052-055>060-089>105-062200-
NORTHEAST KENTUCKY

CITY           SKY/WX    TMP DP  RH WIND       PRES   REMARKS
LEXINGTON      SUNNY     24  10  55 S8        30.45F WCI  15
COVINGTON      MOSUNNY   26  12  55 S14       30.41F WCI  14
FRANKFORT      SUNNY     26  14  60 SE8       30.44F WCI  18
$$

KYZ054-064>069-076>088-106>120-062200-
SOUTHEAST KENTUCKY

CITY           SKY/WX    TMP DP  RH WIND       PRES   REMARKS
JACKSON        SUNNY     31   9  39 CALM      30.41F
LONDON         SUNNY     30  11  45 E3        30.43F
SOMERSET       NOT AVBL
MIDDLESBORO    SUNNY     37  18  46 NW5       30.42S WCI  33
MONTICELLO     CLEAR     30  11  45 CALM      30.49S
$$




USA.gov is the U.S. government's official web portal to all federal, state and local government web resources and services.